Temperature
11 11 12 12 12 12 12 12 12 12 12 12 12 13 12 11 10 9 8 7 7 6 6 5 5 4 4 4 3 2 1 0 -0 -0 -1 -1 -1 -2 -2 -3 -3 -3 -3
10 10 11 11 12 12 12 11 11 11 10 10 10 10 10 10 9 8 7 6 6 5 4 4 3 3 2 2 1 0 -0 -1 -2 -2 -2 -3 -3 -3 -4 -4 -5 -5 -4
9 9 10 10 10 11 10 10 9 9 9 9 9 9 9 8 7 6 5 5 4 4 3 2 2 1 1 -0 -1 -1 -2 -2 -3 -4 -4 -4 -5 -5 -5 -6 -6 -5 -4
8 8 8 9 9 9 9 8 8 8 8 8 8 8 7 6 5 5 4 3 3 3 2 2 1 0 -1 -2 -2 -2 -3 -3 -4 -5 -5 -6 -6 -6 -7 -7 -7 -6 -5
6 7 7 7 7 7 7 7 7 7 7 7 6 6 5 4 4 3 3 3 2 2 1 1 0 -1 -2 -2 -2 -3 -4 -5 -5 -6 -7 -7 -7 -7 -7 -8 -8 -7 -6
5 5 6 6 6 6 6 6 6 6 5 5 4 3 3 2 2 2 2 2 2 1 1 -0 -1 -2 -2 -2 -3 -5 -6 -6 -7 -7 -7 -8 -8 -8 -8 -8 -8 -8 -9
3 3 4 4 4 4 4 4 4 4 3 2 2 1 1 1 1 2 2 2 1 0 -0 -2 -2 -2 -3 -4 -5 -5 -6 -6 -7 -8 -8 -8 -8 -8 -9 -9 -9 -9 -9
2 2 2 2 3 2 2 2 2 1 1 0 0 0 1 1 1 1 1 1 -0 -1 -2 -2 -2 -3 -4 -5 -6 -7 -7 -7 -7 -8 -8 -8 -9 -9 -9 -9 -9 -9 -8
0 0 1 1 1 1 1 1 0 0 0 -0 0 0 1 0 0 0 -0 -1 -2 -2 -3 -4 -4 -5 -5 -6 -8 -8 -8 -8 -8 -8 -8 -8 -9 -8 -9 -9 -8 -8 -8
-0 -0 -0 0 0 0 0 -0 -0 -0 0 0 0 0 0 -0 -1 -1 -2 -2 -3 -4 -4 -5 -6 -6 -7 -8 -9 -9 -9 -9 -9 -8 -8 -8 -8 -8 -8 -8 -8 -9 -9
-0 0 0 0 0 -0 -0 -0 0 0 0 0 -0 -0 -1 -1 -2 -3 -3 -4 -5 -5 -6 -6 -7 -7 -8 -9 -9 -9 -9 -10 -9 -9 -8 -7 -7 -7 -7 -8 -8 -8 -9
1 1 0 0 0 0 0 -0 -0 -0 -0 -1 -1 -1 -2 -3 -3 -4 -5 -5 -7 -7 -7 -7 -8 -9 -9 -9 -9 -9 -9 -9 -9 -8 -8 -8 -7 -7 -7 -7 -7 -8 -8
1 1 1 0 -0 -0 -0 -0 -1 -1 -1 -1 -2 -2 -3 -3 -4 -5 -5 -6 -7 -8 -8 -8 -9 -9 -9 -9 -9 -9 -9 -9 -9 -9 -8 -8 -8 -8 -7 -7 -7 -7 -7
1 1 0 -0 -0 -1 -1 -1 -1 -2 -2 -2 -2 -3 -3 -4 -5 -6 -7 -7 -7 -8 -8 -8 -8 -9 -9 -9 -9 -9 -9 -9 -9 -9 -9 -8 -8 -8 -8 -8 -7 -7 -7
1 0 -0 -0 -1 -1 -1 -1 -2 -2 -2 -3 -3 -4 -4 -5 -6 -7 -8 -8 -8 -9 -9 -8 -9 -9 -8 -9 -9 -9 -9 -9 -9 -9 -9 -8 -8 -8 -8 -8 -7 -7 -7
0 -0 -0 -1 -1 -1 -2 -2 -2 -3 -3 -3 -4 -4 -5 -6 -7 -7 -8 -9 -9 -9 -9 -9 -9 -9 -9 -9 -9 -9 -9 -9 -9 -9 -8 -8 -8 -8 -8 -7 -7 -7 -7
-0 -1 -1 -1 -2 -2 -2 -3 -3 -3 -4 -4 -5 -6 -6 -7 -7 -8 -8 -9 -9 -9 -9 -9 -9 -9 -9 -9 -9 -9 -8 -8 -8 -8 -8 -8 -8 -8 -8 -7 -7 -7 -7
-1 -1 -1 -2 -2 -2 -3 -3 -3 -4 -4 -5 -6 -7 -7 -8 -8 -9 -9 -9 -9 -9 -9 -9 -10 -9 -9 -9 -9 -9 -8 -8 -8 -8 -8 -8 -8 -8 -8 -7 -7 -7 -7
-1 -1 -2 -2 -2 -3 -3 -3 -4 -5 -5 -6 -7 -7 -8 -8 -9 -9 -9 -9 -9 -9 -9 -9 -9 -9 -9 -9 -9 -9 -8 -8 -8 -8 -8 -8 -8 -8 -8 -7 -7 -7 -7
-1 -1 -2 -2 -3 -3 -4 -4 -5 -5 -6 -7 -8 -8 -9 -9 -9 -9 -9 -9 -10 -10 -9 -9 -9 -9 -9 -9 -9 -8 -8 -8 -8 -8 -8 -8 -8 -8 -7 -7 -7 -7 -7
-2 -2 -2 -3 -3 -4 -4 -5 -6 -6 -7 -8 -9 -9 -10 -10 -9 -9 -9 -10 -10 -9 -9 -9 -9 -9 -9 -9 -8 -8 -8 -8 -8 -8 -8 -8 -8 -8 -7 -7 -7 -7 -8
-2 -2 -3 -3 -4 -4 -5 -6 -7 -8 -8 -9 -9 -10 -10 -10 -10 -9 -9 -9 -9 -9 -9 -9 -8 -8 -9 -9 -8 -8 -8 -8 -8 -8 -8 -8 -8 -8 -7 -7 -7 -7 -8
-2 -3 -3 -4 -5 -5 -6 -7 -8 -8 -9 -9 -10 -10 -10 -10 -10 -9 -9 -9 -9 -9 -9 -9 -8 -8 -8 -8 -8 -8 -8 -8 -8 -8 -8 -8 -8 -8 -8 -8 -8 -8 -8
-3 -4 -4 -5 -5 -6 -7 -8 -8 -9 -9 -10 -10 -10 -10 -10 -9 -9 -9 -9 -8 -8 -8 -8 -8 -8 -8 -8 -8 -8 -8 -8 -8 -8 -8 -8 -8 -8 -8 -8 -8 -8 -8
-4 -4 -5 -5 -6 -7 -8 -8 -9 -9 -10 -10 -10 -10 -10 -9 -9 -9 -9 -8 -8 -8 -8 -8 -8 -8 -8 -8 -8 -8 -8 -8 -8 -8 -8 -8 -8 -8 -8 -8 -8 -8 -8
-4 -4 -5 -6 -6 -7 -8 -9 -9 -10 -10 -10 -10 -10 -9 -9 -9 -9 -8 -8 -8 -8 -7 -7 -8 -8 -8 -8 -8 -8 -8 -8 -8 -8 -8 -8 -8 -8 -8 -8 -8 -8 -8
Wind_Speed
7 7 7 7 6 6 7 8 8 8 10 12 12 13 13 13 13 12 11 12 11 9 7 7 5 4 3 3 3 2 3 4 5 4 3 3 3 5 10 14 14 15 16
7 7 7 5 5 6 6 7 8 9 9 11 11 11 12 12 12 13 13 11 11 9 7 6 4 3 3 3 3 3 4 4 5 6 3 3 6 6 6 7 12 14 15
7 6 5 3 4 5 6 8 9 10 11 11 11 11 11 12 12 12 13 11 10 8 6 5 3 3 3 2 3 4 4 4 5 5 5 4 5 5 5 6 8 11 15
6 4 3 1 4 6 7 9 10 11 12 12 11 12 12 12 13 14 13 12 10 9 7 5 4 2 2 4 4 5 5 5 5 5 5 5 5 6 5 6 8 6 8
6 4 3 4 6 8 10 11 12 12 13 13 14 14 13 12 12 14 13 12 10 8 6 4 2 1 5 6 5 6 6 5 5 5 5 4 5 5 5 5 9 8 8
7 7 7 9 10 11 12 13 14 14 14 15 15 15 14 12 19 19 14 11 8 6 4 3 1 2 3 5 8 9 7 6 5 5 5 7 7 6 6 8 9 10 7
10 10 11 12 13 13 14 14 14 14 15 14 14 15 15 17 20 19 16 10 8 6 4 2 2 2 3 3 6 9 10 14 13 8 7 8 8 7 8 9 9 10 12
10 11 11 13 14 14 14 14 14 12 13 13 14 14 13 14 17 16 14 9 7 5 4 2 0 3 5 6 6 6 6 7 9 7 7 9 9 9 9 10 10 9 9
10 10 10 11 13 13 13 13 11 12 12 12 11 11 11 11 14 13 10 6 5 4 2 0 2 4 9 11 6 4 5 6 11 16 18 17 19 20 18 8 6 7 11
9 9 10 10 12 12 12 11 10 10 11 10 10 9 9 7 9 10 9 4 4 2 1 1 5 7 10 11 5 4 6 7 7 8 9 11 12 15 17 7 5 7 8
9 10 11 11 11 11 10 10 10 10 10 10 10 8 7 7 7 7 7 4 3 2 1 2 4 10 11 12 10 4 10 11 4 4 7 8 7 6 6 6 6 7 10
10 11 11 10 9 9 10 9 9 9 10 9 8 7 6 6 7 7 7 4 2 2 2 3 5 11 12 12 10 12 16 11 4 6 7 8 7 8 8 7 10 11 14
10 10 10 10 9 8 8 8 7 6 6 6 6 6 4 4 5 7 6 6 7 3 3 8 9 11 11 8 11 14 10 5 5 6 8 8 7 8 9 8 9 9 12
10 8 8 8 8 7 6 6 6 6 5 5 5 4 3 2 2 1 1 2 5 5 3 5 8 10 9 10 9 8 5 6 6 6 8 9 9 8 8 8 9 10 11
8 7 7 7 7 7 7 6 6 4 5 5 4 3 2 0 2 4 3 2 3 3 3 2 3 4 5 5 5 5 5 6 6 7 8 9 10 9 10 8 7 8 9
7 6 5 5 5 6 6 6 9 7 9 8 5 3 0 2 4 7 8 9 9 10 5 3 4 4 5 6 7 7 7 6 6 7 8 8 9 10 11 10 8 10 11
7 6 5 5 5 4 4 4 3 5 8 8 8 6 5 5 6 7 8 8 8 7 3 3 4 5 5 6 6 6 7 7 7 7 8 8 9 9 10 11 10 10 12
7 7 6 4 4 4 4 3 2 2 2 3 5 7 7 6 6 7 8 6 4 4 3 4 5 5 5 6 6 7 7 8 7 7 8 8 8 9 10 11 10 11 13
6 5 5 4 4 4 3 3 3 3 2 2 3 4 6 5 6 7 6 2 3 4 4 4 5 5 6 6 6 7 7 8 8 8 8 9 8 9 10 11 12 17 16
5 8 6 4 4 3 3 2 2 2 1 2 2 3 3 2 2 3 3 3 3 4 5 5 6 6 6 6 7 7 8 8 8 8 9 9 9 9 11 13 13 13 14
5 5 7 5 3 3 2 1 1 0 1 2 3 4 5 0 2 4 4 4 4 5 5 6 6 7 6 6 6 7 9 9 9 9 9 9 9 10 11 12 14 14 14
5 4 3 3 2 2 1 1 0 1 2 3 3 4 6 2 3 4 4 5 5 5 5 6 7 7 6 7 7 8 9 10 10 9 9 10 10 12 13 13 14 14 14
5 4 3 2 2 2 2 1 1 2 2 3 3 3 3 3 4 4 5 5 6 6 7 6 7 8 8 10 10 9 10 11 10 10 11 12 12 13 13 14 15 15 14
5 4 4 3 2 2 2 2 2 3 3 3 4 4 4 4 5 6 6 6 6 6 8 8 8 10 13 14 13 14 15 16 16 13 14 15 15 14 13 13 14 15 15
4 4 3 3 3 3 2 3 3 3 3 4 4 4 4 5 6 6 6 6 7 8 9 11 11 12 14 16 18 18 20 23 23 19 15 13 15 15 15 15 14 15 15
4 4 3 3 3 3 3 3 3 4 4 4 4 5 5 6 6 6 7 7 7 8 8 10 13 15 18 18 19 21 23 24 25 26 19 12 14 14 15 14 15 15 15
Wind_Direction
286 280 269 254 229 205 199 194 179 165 160 164 165 161 159 158 155 147 141 138 131 124 120 124 127 131 142 139 130 159 189 184 224 252 248 253 261 271 288 295 297 292 288
291 285 271 250 213 195 186 168 154 151 151 152 151 153 153 151 148 141 135 128 124 123 118 124 135 142 152 147 165 196 212 210 217 248 250 250 253 263 266 276 291 294 291
298 290 277 237 193 176 157 145 142 140 139 140 144 145 144 139 132 125 119 113 109 108 114 125 131 140 170 181 201 216 229 231 218 236 253 243 255 262 271 273 276 279 287
316 310 292 201 153 138 130 129 130 131 131 130 128 126 124 121 116 111 107 103 99 94 92 91 89 123 221 225 227 227 231 238 234 240 255 256 257 257 257 275 291 277 287
347 0 27 82 102 107 109 111 113 114 115 114 113 112 110 109 109 108 106 105 102 98 88 76 59 285 251 235 229 228 225 235 243 249 262 268 268 268 270 276 297 297 286
28 39 57 77 88 94 99 101 102 104 106 108 110 110 106 106 110 108 107 102 100 96 84 59 351 297 297 291 280 273 247 232 231 237 254 268 275 270 275 286 295 301 299
48 55 65 77 82 86 94 97 99 101 103 105 106 105 105 110 110 106 104 103 101 99 97 81 36 5 2 317 301 296 294 292 286 279 280 278 279 277 277 281 280 281 286
59 65 72 82 86 89 91 94 96 100 102 103 102 102 103 107 107 104 102 102 105 108 110 114 338 311 302 289 263 264 268 276 283 283 263 265 267 269 264 278 287 290 281
58 66 74 85 91 93 95 95 97 100 99 99 100 102 103 106 107 109 111 111 106 107 106 110 290 281 301 305 300 279 278 274 290 296 296 297 302 305 305 303 298 299 297
56 64 70 78 84 88 91 94 94 96 97 96 92 91 96 103 120 126 127 112 111 105 72 304 314 311 308 311 308 297 295 286 282 295 303 304 298 295 299 292 274 280 288
62 68 71 76 82 86 88 88 92 93 93 91 89 81 78 83 90 96 114 114 122 144 237 264 280 314 317 318 325 325 306 313 327 319 307 300 295 287 283 273 257 254 271
70 71 70 71 75 81 86 85 88 96 95 93 91 80 59 50 62 66 67 60 53 157 262 266 281 316 329 334 333 320 319 330 338 315 306 301 299 296 293 282 273 258 252
77 75 74 74 72 76 87 90 82 79 89 88 87 82 67 48 41 52 42 19 359 349 299 321 331 339 344 340 327 327 337 336 312 305 301 296 289 283 289 292 288 275 268
84 78 76 77 72 62 67 74 82 84 88 91 93 93 76 50 17 337 321 324 337 333 339 356 357 350 345 336 334 331 321 304 302 297 299 298 300 296 295 296 301 308 305
86 82 78 77 78 73 72 78 87 88 110 110 113 123 116 61 317 358 15 339 335 335 36 40 1 346 340 331 321 315 310 310 306 299 298 301 302 302 301 302 295 299 292
99 88 84 84 81 80 78 72 79 87 86 97 125 136 208 348 4 10 358 355 354 348 15 7 340 327 321 317 316 314 309 302 298 298 296 293 295 298 299 298 293 293 292
109 105 94 94 92 92 93 95 80 59 64 59 50 38 32 21 16 5 358 2 0 5 17 327 310 304 301 299 296 296 296 294 294 291 288 289 290 291 292 295 297 295 293
105 107 106 100 100 100 101 100 96 82 41 11 14 17 18 15 14 4 5 15 1 356 318 300 296 296 296 295 294 294 295 297 294 289 286 284 284 286 289 291 292 291 294
111 110 110 111 107 103 99 92 80 74 62 17 355 354 2 4 12 5 13 17 316 307 300 293 288 288 288 287 287 286 286 288 287 286 285 283 283 284 286 288 290 293 295
123 133 130 121 113 104 97 93 82 63 35 355 331 315 313 327 346 334 331 302 292 288 289 289 290 285 284 283 285 287 288 287 287 286 285 285 285 283 285 289 291 292 292
124 134 132 121 118 118 111 106 108 121 290 293 291 297 316 124 296 296 296 287 279 283 284 288 287 286 281 280 281 282 283 286 285 284 285 285 286 288 288 287 288 288 288
126 126 129 131 128 139 142 144 204 258 275 284 287 302 325 326 291 287 285 284 280 276 274 280 282 279 275 276 280 283 284 284 283 282 283 285 287 287 288 288 288 289 292
130 133 132 132 142 188 153 186 241 262 271 278 282 286 297 292 289 285 285 286 289 288 287 280 278 282 279 276 273 271 275 277 279 279 282 286 286 286 287 289 292 298 301
137 146 153 160 169 179 206 240 257 268 272 276 279 282 282 283 288 291 289 288 289 283 284 281 276 277 281 286 285 278 274 274 276 274 270 274 282 289 295 299 302 301 303
144 155 167 181 195 208 228 249 261 270 279 283 286 289 292 292 290 287 286 285 286 285 285 286 282 281 283 284 286 286 285 288 290 290 288 288 292 298 302 303 303 304 304
153 164 176 187 201 215 231 250 263 271 276 281 285 287 288 287 286 286 287 287 288 290 289 291 284 285 288 291 290 290 294 298 300 302 302 299 301 303 306 306 304 306 305
Height
1431 1430 1430 1430 1431 1431 1432 1433 1435 1437 1440 1443 1446 1450 1453 1458 1463 1468 1472 1476 1480 1483 1486 1488 1490 1492 1493 1493 1493 1493 1494 1493 1490 1488 1486 1485 1483 1480 1477 1474 1470 1466 1463
1423 1423 1423 1423 1424 1425 1426 1427 1429 1431 1434 1438 1441 1445 1449 1453 1458 1463 1467 1471 1475 1479 1482 1484 1486 1487 1488 1488 1488 1489 1489 1487 1485 1481 1478 1477 1475 1473 1469 1466 1463 1460 1456
1417 1416 1416 1416 1417 1418 1420 1421 1424 1426 1430 1433 1437 1441 1445 1449 1453 1458 1463 1468 1472 1475 1478 1480 1482 1483 1484 1484 1484 1483 1483 1482 1479 1475 1472 1470 1467 1466 1462 1458 1455 1452 1449
1412 1411 1410 1410 1411 1413 1415 1417 1420 1423 1426 1430 1434 1438 1441 1445 1450 1455 1460 1465 1469 1472 1474 1476 1477 1478 1479 1479 1478 1477 1477 1475 1473 1469 1466 1463 1460 1458 1455 1451 1446 1444 1441
1407 1406 1405 1406 1407 1409 1411 1414 1417 1420 1423 1427 1430 1434 1439 1444 1449 1454 1459 1463 1466 1469 1470 1472 1472 1473 1473 1473 1472 1471 1470 1469 1467 1464 1460 1457 1454 1452 1449 1445 1440 1435 1432
1404 1403 1403 1403 1405 1407 1409 1412 1415 1418 1421 1425 1429 1433 1438 1443 1448 1453 1458 1461 1464 1466 1467 1467 1468 1467 1468 1467 1466 1466 1465 1463 1460 1458 1455 1452 1449 1446 1443 1439 1434 1429 1424
1404 1403 1402 1403 1404 1407 1409 1411 1414 1417 1421 1425 1430 1435 1440 1445 1449 1453 1457 1459 1461 1462 1463 1463 1464 1464 1463 1462 1460 1460 1459 1458 1456 1454 1449 1446 1443 1440 1436 1432 1429 1425 1421
1406 1405 1405 1406 1407 1409 1411 1413 1417 1420 1424 1428 1433 1437 1442 1447 1450 1453 1455 1457 1458 1458 1459 1460 1460 1459 1458 1456 1455 1453 1452 1450 1449 1446 1443 1440 1437 1434 1431 1428 1424 1418 1414
1410 1410 1410 1410 1411 1413 1415 1418 1421 1424 1428 1433 1437 1441 1444 1448 1450 1452 1453 1454 1455 1456 1456 1456 1456 1455 1453 1451 1450 1448 1446 1444 1442 1440 1437 1434 1432 1429 1426 1422 1417 1412 1406
1416 1416 1416 1416 1417 1419 1421 1424 1427 1431 1434 1437 1441 1443 1445 1447 1449 1451 1452 1453 1453 1453 1453 1453 1452 1450 1448 1447 1445 1442 1439 1437 1434 1431 1429 1427 1425 1422 1420 1416 1412 1407 1401
1423 1423 1423 1424 1425 1427 1429 1432 1434 1436 1438 1441 1442 1444 1446 1448 1449 1450 1450 1451 1451 1451 1450 1449 1447 1445 1443 1442 1440 1437 1434 1432 1428 1426 1423 1421 1419 1416 1414 1411 1407 1402 1397
1431 1431 1431 1432 1433 1435 1436 1438 1439 1441 1442 1444 1445 1446 1448 1449 1449 1450 1450 1449 1449 1447 1446 1444 1442 1441 1439 1437 1434 1432 1429 1426 1423 1421 1418 1416 1413 1410 1408 1405 1401 1397 1392
1438 1438 1439 1439 1440 1441 1442 1443 1444 1445 1445 1446 1447 1448 1448 1449 1449 1448 1448 1447 1445 1444 1442 1440 1439 1436 1434 1431 1429 1427 1424 1422 1419 1416 1414 1411 1408 1405 1401 1398 1394 1390 1385
1444 1444 1444 1444 1445 1445 1446 1446 1446 1447 1447 1448 1448 1448 1448 1448 1447 1446 1445 1444 1442 1440 1438 1436 1434 1432 1430 1428 1425 1423 1421 1419 1416 1413 1410 1407 1403 1400 1396 1392 1387 1382 1375
1448 1448 1448 1448 1448 1448 1448 1449 1449 1449 1449 1449 1448 1448 1447 1446 1445 1444 1443 1441 1439 1437 1435 1433 1431 1429 1427 1425 1423 1421 1419 1416 1413 1410 1406 1403 1399 1395 1391 1387 1382 1377 1371
1451 1451 1451 1451 1451 1451 1451 1450 1450 1450 1449 1448 1447 1446 1445 1445 1443 1442 1440 1438 1436 1434 1432 1430 1428 1426 1424 1422 1420 1418 1416 1413 1410 1407 1403 1399 1395 1391 1386 1383 1378 1372 1366
1453 1452 1452 1452 1452 1452 1452 1451 1451 1450 1449 1447 1446 1445 1444 1442 1441 1439 1437 1436 1434 1432 1430 1428 1426 1424 1422 1420 1417 1415 1412 1410 1407 1403 1399 1395 1391 1387 1383 1378 1373 1367 1361
1453 1453 1453 1453 1453 1452 1452 1451 1450 1449 1448 1446 1445 1443 1441 1440 1438 1437 1435 1433 1432 1430 1428 1426 1424 1422 1420 1417 1415 1412 1409 1406 1403 1399 1395 1392 1388 1383 1378 1373 1368 1362 1355
1453 1453 1453 1453 1453 1452 1452 1451 1449 1448 1446 1444 1442 1441 1439 1438 1436 1435 1433 1431 1429 1428 1426 1424 1422 1420 1417 1415 1412 1409 1406 1403 1399 1395 1391 1387 1383 1379 1373 1368 1362 1356 1349
1453 1453 1453 1453 1452 1452 1450 1449 1447 1446 1444 1442 1440 1439 1437 1436 1434 1433 1431 1429 1427 1426 1424 1422 1420 1418 1415 1412 1409 1406 1402 1399 1395 1391 1387 1383 1379 1374 1368 1362 1356 1350 1343
1453 1453 1452 1452 1451 1450 1449 1447 1445 1443 1441 1440 1438 1437 1435 1433 1432 1430 1429 1427 1425 1423 1421 1419 1417 1415 1412 1409 1406 1402 1399 1395 1391 1386 1382 1378 1374 1369 1363 1357 1351 1344 1337
1452 1452 1451 1451 1449 1448 1446 1444 1442 1440 1439 1437 1435 1434 1433 1431 1429 1428 1426 1424 1423 1421 1418 1416 1414 1412 1409 1406 1402 1398 1394 1390 1386 1382 1378 1373 1369 1363 1357 1351 1345 1339 1333
1450 1450 1449 1448 1447 1445 1443 1442 1440 1438 1436 1434 1433 1431 1430 1428 1426 1425 1423 1421 1420 1418 1416 1413 1411 1408 1406 1403 1399 1395 1390 1386 1382 1378 1373 1368 1363 1357 1352 1346 1341 1335 1328
1449 1448 1447 1446 1444 1442 1441 1439 1437 1435 1433 1432 1430 1428 1427 1425 1424 1422 1420 1418 1416 1415 1413 1410 1407 1405 1402 1399 1395 1391 1387 1382 1377 1373 1368 1363 1358 1353 1348 1343 1337 1330 1324
1446 1446 1444 1443 1442 1440 1438 1436 1434 1432 1430 1429 1427 1425 1424 1422 1421 1419 1417 1415 1413 1411 1409 1407 1404 1401 1398 1394 1391 1386 1382 1378 1374 1369 1365 1361 1355 1350 1345 1338 1332 1325 1319
1444 1443 1442 1440 1439 1437 1435 1433 1431 1429 1427 1426 1424 1422 1421 1420 1418 1416 1414 1412 1410 1408 1406 1403 1400 1397 1394 1390 1386 1382 1378 1373 1369 1366 1362 1356 1351 1345 1339 1333 1326 1320 1313